Probability
0 0 0 0 0 0 0 1 7 33 72 95 100 99 91 75 51 24 6 1 0 0 0 0 0 0 0 0 0 0 0 0 0 0 0 0 0 0 0 0 0 0 0
0 0 0 0 0 0 0 0 5 26 63 91 98 89 69 44 25 11 3 0 0 0 0 0 0 0 0 0 0 0 0 0 0 0 0 0 0 0 0 0 0 0 0
0 0 0 0 0 0 0 0 3 21 57 87 91 67 32 11 4 1 0 0 0 0 0 0 0 0 0 0 0 0 0 0 0 0 0 0 0 0 0 0 0 0 0
0 0 0 0 0 0 0 0 4 25 61 86 81 48 13 0 0 0 0 0 0 0 0 0 0 0 0 0 0 0 0 0 0 0 0 0 0 0 0 0 0 0 0
0 0 0 0 0 0 0 1 10 36 69 86 72 36 8 0 0 0 0 0 0 0 0 0 0 0 0 0 0 0 0 0 0 0 0 0 0 0 0 0 0 0 0
0 0 0 0 0 0 0 4 19 48 76 83 59 25 5 0 0 0 0 0 0 0 0 0 0 0 0 0 0 0 0 0 0 0 0 0 0 0 0 0 0 0 0
0 0 0 0 0 1 3 9 27 54 75 70 42 13 2 0 0 0 0 0 0 0 0 0 0 0 0 0 0 0 0 0 0 0 0 0 0 0 0 0 0 0 0
0 0 0 0 0 2 6 14 28 47 57 46 21 5 0 0 0 0 0 0 0 0 0 0 0 0 0 0 0 0 0 0 0 0 0 0 0 0 0 0 0 0 0
0 0 0 0 0 2 6 13 22 30 30 19 6 1 0 0 0 0 0 0 0 0 0 0 0 0 0 0 0 0 0 0 0 0 0 0 0 0 0 0 0 0 0
0 0 0 0 0 1 3 7 12 13 10 4 1 0 0 0 0 0 0 0 0 0 0 0 0 0 0 0 0 0 0 0 0 0 0 0 0 0 0 0 0 0 0
0 0 0 0 0 0 0 2 4 4 2 0 0 0 0 0 0 0 0 0 0 0 0 0 0 0 0 0 0 0 0 0 0 0 0 0 0 0 0 0 0 0 0
0 0 0 0 0 0 0 0 1 1 0 0 0 0 0 0 0 0 0 0 0 0 0 0 0 0 0 0 0 0 0 0 0 0 0 0 0 0 0 0 0 0 0
0 0 0 0 0 0 0 0 0 0 0 0 0 0 0 0 0 0 0 0 0 0 0 0 0 0 0 0 0 0 0 0 0 0 0 0 0 0 0 0 0 0 0
0 0 0 0 0 0 0 0 0 0 0 0 0 0 0 0 0 0 0 0 0 0 0 0 0 0 0 0 0 0 0 0 0 0 0 0 0 0 0 0 0 0 0
0 0 0 0 0 0 0 0 0 0 0 0 0 0 0 0 0 0 0 0 0 0 0 0 0 0 0 0 0 0 0 0 0 0 0 0 0 0 0 0 0 0 0
0 0 0 0 0 0 0 0 0 0 0 0 0 0 0 0 0 0 0 0 0 0 0 0 0 0 0 0 0 0 0 0 0 0 0 0 0 0 0 0 0 0 0
0 0 0 0 0 0 0 0 0 0 0 0 0 0 0 0 0 0 0 0 0 0 0 0 0 0 0 0 0 0 0 0 0 0 0 0 0 0 0 0 0 0 0
0 0 0 0 0 0 0 0 0 0 0 0 0 0 0 0 0 0 0 0 0 0 0 0 0 0 0 0 0 0 0 0 0 0 0 0 0 0 0 0 0 0 0
0 0 0 0 0 0 0 0 0 0 0 0 0 0 0 0 0 0 0 0 0 0 0 0 0 0 0 0 0 0 0 0 0 0 0 0 0 0 0 0 0 0 0
0 0 0 0 0 0 0 0 0 0 0 0 0 0 0 0 0 0 0 0 0 0 0 0 0 0 0 0 0 0 0 0 0 0 0 0 0 0 0 0 0 0 0
0 0 0 0 0 0 0 0 0 0 0 0 0 0 0 0 0 0 0 0 0 0 0 0 0 0 0 0 0 0 0 0 0 0 0 0 0 0 0 0 0 0 0
0 0 0 0 0 0 0 0 0 0 0 0 0 0 0 0 0 0 0 0 0 0 0 0 0 0 0 0 0 0 0 0 0 0 0 0 0 0 0 0 0 0 0
0 0 0 0 0 0 0 0 0 0 0 0 0 0 0 0 0 0 0 0 0 0 0 0 0 0 0 0 0 0 0 0 0 0 0 0 0 0 0 0 0 0 0
0 0 0 0 0 0 0 0 0 0 0 0 0 0 0 0 0 0 0 0 0 0 0 0 0 0 0 0 0 0 0 0 0 0 0 0 0 0 0 0 0 0 0
0 0 0 0 0 0 0 0 0 0 0 0 0 0 0 0 0 0 0 0 0 0 0 0 0 0 0 0 0 0 0 0 0 0 0 0 0 0 0 0 0 0 0
0 0 0 0 0 0 0 0 0 0 0 0 0 0 0 0 0 0 0 0 0 0 0 0 0 0 0 0 0 0 0 0 0 0 0 0 0 0 0 0 0 0 0
Wind_Speed
9 8 8 8 8 8 8 8 10 11 11 10 10 9 8 6 6 6 10 10 10 10 8 7 7 6 4 4 4 3 4 3 3 3 3 2 1 1 1 2 1 0 1
11 11 10 9 9 9 8 8 8 11 11 10 9 7 5 5 5 5 7 9 10 9 8 9 7 6 5 6 5 3 3 2 3 2 2 3 3 2 1 1 1 0 1
12 11 11 11 10 10 9 8 9 10 11 11 8 7 6 5 4 5 5 6 8 8 8 9 8 7 6 5 5 4 4 2 2 3 3 2 1 4 4 2 0 0 1
10 10 10 11 11 11 10 9 9 10 12 13 12 14 11 8 7 6 5 6 7 8 9 9 9 7 6 6 5 5 3 2 2 1 2 1 2 0 4 4 3 3 3
9 9 9 10 9 9 10 10 10 10 12 13 14 14 9 7 9 9 9 7 6 8 10 10 8 8 6 7 6 5 4 2 2 2 1 1 1 2 2 4 4 4 4
6 5 4 4 5 6 6 8 11 11 12 13 13 13 13 13 15 14 12 9 7 7 9 10 8 7 7 6 6 5 4 3 2 1 1 1 0 1 1 3 4 5 4
3 2 2 4 5 6 6 6 9 11 13 13 14 13 13 16 17 16 14 13 10 8 9 10 7 7 7 6 5 4 4 2 2 0 0 1 0 1 1 3 4 5 4
4 2 2 3 5 6 5 6 8 10 12 13 12 12 12 12 11 11 11 11 10 9 10 10 9 8 8 7 5 4 3 2 1 1 1 1 2 1 1 2 3 6 4
5 3 2 2 5 6 6 7 9 9 11 12 11 11 13 13 13 11 10 9 10 11 11 11 10 8 7 7 5 3 3 3 2 1 0 1 1 1 2 2 2 3 6
4 1 2 3 5 6 5 6 9 10 10 12 11 10 12 13 13 12 12 13 13 13 13 11 9 8 7 6 4 2 3 2 1 2 1 2 1 2 2 2 3 3 5
0 1 2 4 5 6 4 6 8 10 11 12 12 12 12 13 13 11 12 13 13 13 12 11 9 8 6 5 4 3 3 1 1 1 2 2 1 2 2 3 3 4 4
1 1 1 2 4 6 4 5 7 10 13 14 13 13 12 13 13 12 13 13 13 12 11 9 8 7 6 5 3 1 1 1 2 2 2 3 2 3 3 3 4 4 5
5 3 2 1 3 5 3 3 8 13 14 14 14 13 12 13 13 14 14 13 13 12 10 9 8 7 6 4 3 2 2 2 3 3 3 3 2 3 3 4 4 4 6
7 4 2 0 2 2 2 8 11 13 14 14 13 13 13 13 13 14 14 13 13 11 10 9 8 7 5 4 3 3 3 4 4 3 3 4 4 4 4 4 4 5 5
7 4 2 2 2 4 7 11 12 12 13 13 13 13 13 13 14 14 13 12 11 12 10 10 8 5 4 5 5 4 4 5 5 5 4 4 5 8 7 6 5 5 5
6 4 3 5 7 9 10 11 11 11 11 13 13 14 15 14 13 13 13 12 12 10 9 8 6 5 4 6 4 3 3 4 5 6 4 4 6 10 13 15 15 14 10
4 2 6 8 10 10 10 10 10 11 12 13 15 15 15 14 12 13 13 12 11 9 8 6 5 5 6 5 3 6 4 5 6 6 4 5 6 9 4 10 15 14 19
3 7 10 11 11 11 11 11 12 13 13 14 15 15 15 14 12 12 12 10 8 7 6 5 4 4 5 4 3 7 5 5 6 5 5 4 5 6 9 6 5 6 9
10 11 11 12 12 12 13 14 14 14 14 15 15 13 12 13 12 12 10 8 7 6 5 4 3 3 3 4 4 7 3 4 6 5 6 7 5 13 17 9 7 9 9
12 12 13 13 13 12 13 15 15 14 14 13 13 12 11 11 12 10 8 7 6 6 4 3 2 2 1 1 4 6 2 4 4 5 6 11 13 16 17 9 9 11 10
13 13 13 12 12 12 13 15 14 14 13 13 12 11 10 11 10 9 7 7 5 4 2 2 1 1 2 1 4 7 2 3 4 4 4 6 16 19 21 19 9 13 15
12 11 12 12 11 11 13 15 14 13 12 12 12 11 10 9 8 8 6 5 4 3 2 1 2 2 2 2 4 8 9 10 5 4 4 7 18 21 22 16 15 20 17
9 9 11 13 11 9 9 15 13 12 12 12 12 10 9 7 6 6 5 4 3 3 2 2 2 2 2 4 8 10 13 15 8 6 14 18 21 20 12 14 19 15 7
9 10 12 14 12 10 9 12 11 11 12 12 10 7 7 7 6 5 4 3 3 3 3 3 3 3 3 3 3 3 5 9 8 7 11 18 18 14 13 12 10 6 6
9 9 11 14 13 11 10 10 9 11 12 10 8 6 6 5 5 4 3 4 4 3 2 2 2 3 3 6 12 9 5 5 7 9 5 4 5 4 5 6 5 6 7
10 10 11 13 12 11 10 8 8 8 10 8 6 5 4 4 3 3 2 2 2 2 1 3 4 4 7 13 14 16 16 17 17 11 4 4 4 5 7 8 9 8 8
Wind_Direction
255 249 239 238 238 233 221 191 172 170 163 167 179 188 189 165 142 133 136 136 140 140 140 135 125 123 123 119 112 113 88 32 355 10 347 296 220 204 191 145 92 12 162
250 250 242 233 233 235 221 198 176 172 169 171 180 181 148 121 109 117 126 137 143 143 141 133 128 122 114 99 89 86 104 61 32 50 24 358 344 327 276 148 166 292 37
248 251 246 236 227 228 225 206 190 177 169 163 159 136 108 94 96 114 127 139 142 139 135 130 125 125 119 117 112 96 94 118 66 62 85 81 324 322 320 295 119 335 322
247 248 246 243 232 221 217 211 195 180 167 163 167 164 165 159 160 146 136 137 137 135 130 127 127 122 118 120 117 103 97 92 99 78 64 108 129 79 319 320 335 1 339
240 244 242 239 236 225 213 205 193 177 165 168 172 171 166 141 131 133 139 141 138 130 126 125 124 123 121 118 113 106 91 83 88 78 53 28 43 186 223 284 307 325 315
244 253 265 272 262 249 226 205 188 172 165 169 172 170 165 152 147 150 152 151 141 130 126 124 122 119 116 116 117 112 100 89 86 69 82 123 136 309 285 283 298 294 290
283 294 329 314 292 267 239 208 185 168 164 170 173 173 168 155 155 156 157 153 148 143 138 132 127 122 119 120 123 121 124 123 107 49 24 43 328 280 276 281 290 293 298
260 277 326 316 297 275 240 200 180 165 166 172 171 171 155 149 153 155 156 154 150 143 139 133 128 126 125 127 130 128 135 127 153 233 192 233 265 273 271 271 296 303 291
230 240 300 308 299 282 247 199 180 171 170 169 163 159 148 146 147 149 150 144 139 139 136 130 129 129 129 134 139 142 151 151 188 211 41 307 280 282 275 275 266 275 291
231 255 345 331 306 285 248 197 182 176 168 159 150 145 141 139 143 149 148 141 139 137 134 129 126 124 124 127 127 124 120 119 242 180 198 267 292 327 320 303 283 264 273
149 33 345 336 319 302 254 195 184 170 155 141 133 132 133 136 140 141 137 135 134 133 131 129 125 127 131 132 135 157 152 176 269 271 236 244 266 278 278 279 278 273 271
291 295 334 348 321 298 263 201 176 151 134 127 126 128 130 133 133 131 128 128 127 124 124 123 120 119 115 110 111 118 128 228 258 271 272 265 261 267 272 270 268 271 270
287 301 349 15 313 293 273 154 133 123 120 122 124 128 130 130 129 127 126 124 123 120 116 111 108 105 100 91 69 42 2 327 297 280 270 269 274 277 275 280 286 286 292
295 307 322 65 270 279 101 109 111 113 116 120 127 131 129 127 125 122 120 121 119 116 108 102 99 101 103 89 55 22 348 328 316 304 281 262 252 253 257 275 275 279 284
285 277 248 189 159 102 99 104 106 109 117 124 127 126 122 118 115 115 116 115 111 107 103 102 102 104 102 78 53 13 347 338 325 312 298 287 292 291 285 280 265 276 278
279 249 178 139 118 107 105 103 106 113 121 124 121 117 115 113 113 114 113 107 103 102 102 105 111 112 99 85 44 354 337 326 313 303 304 314 307 296 301 306 306 303 302
277 154 119 111 105 105 108 107 108 110 113 115 114 112 112 111 112 115 110 107 107 107 106 106 105 107 118 103 31 343 338 308 292 288 289 292 293 307 306 301 302 303 303
89 98 98 96 96 100 100 100 102 106 108 109 109 111 114 116 116 112 107 107 108 108 108 108 105 110 140 117 29 349 346 310 298 295 289 288 292 298 302 292 293 284 290
78 85 91 96 97 98 102 104 103 104 107 110 113 117 120 119 114 108 106 106 105 102 102 101 98 90 121 112 22 356 326 308 312 320 328 322 302 305 311 314 301 295 292
75 84 90 94 96 98 104 107 108 109 110 113 114 114 114 113 109 105 101 97 97 102 108 113 117 115 117 72 359 349 330 318 318 318 316 317 313 312 316 312 300 301 298
81 88 93 96 102 107 110 111 112 112 114 114 111 109 106 103 101 99 95 97 100 106 115 133 191 189 160 39 338 338 328 296 299 298 299 301 313 313 312 310 300 297 302
102 104 106 108 113 118 119 115 112 114 114 111 106 101 96 97 98 97 94 93 92 83 69 55 30 33 55 11 326 328 332 330 320 305 295 298 312 313 312 312 307 308 312
101 103 105 103 100 101 111 111 109 111 109 103 98 94 88 85 90 95 97 88 73 68 46 38 27 0 7 346 347 345 335 329 324 310 313 315 315 314 311 310 314 319 312
94 99 101 100 95 93 95 104 109 109 105 101 97 94 92 87 78 72 72 76 68 55 38 27 16 359 350 347 353 326 313 316 315 304 305 313 312 313 319 320 319 311 301
95 99 105 104 102 101 98 96 101 103 99 96 93 89 86 92 89 82 74 73 83 89 58 16 4 345 324 315 322 324 312 308 301 309 300 298 304 314 318 311 309 310 312
103 103 103 103 102 98 93 88 90 97 101 98 92 88 87 83 83 81 72 112 115 89 346 306 306 305 308 317 324 323 319 319 318 319 309 309 315 315 318 318 316 313 311